Dewpoint
25 24 34 33 34 35 35 34 33 31 34 36 39 40 38 33 34 36 36 36 37 37 37 38 44 49 52 53 53 51 51 54 54 54 54 54 53 55 55 55 54 52 50 49
22 21 22 31 31 33 33 37 36 36 35 41 36 36 34 37 36 37 37 38 40 41 43 43 44 44 48 53 53 53 50 50 54 55 55 55 54 54 54 55 56 55 53 52
21 22 21 23 25 31 32 33 30 31 35 31 34 37 36 36 37 37 37 38 41 43 47 48 49 49 49 49 51 54 52 51 50 53 55 55 55 55 55 54 54 56 56 55
19 19 17 24 25 25 22 29 30 35 34 34 38 35 34 35 33 35 37 38 41 47 47 48 48 48 50 50 49 52 54 53 52 51 53 54 54 55 55 55 55 54 55 55
20 20 18 16 17 18 19 30 36 35 37 34 35 34 34 35 33 32 37 40 48 48 46 45 45 46 50 49 49 50 52 52 53 54 53 52 54 54 54 54 54 55 55 55
23 20 15 17 21 25 25 28 35 36 36 35 36 34 35 39 40 41 44 47 45 43 42 41 41 43 45 44 45 46 49 48 48 47 54 55 53 53 54 54 53 54 54 55
24 24 24 23 26 27 21 29 34 34 34 34 34 37 37 38 37 36 37 38 41 39 38 37 37 39 40 40 40 43 44 43 42 42 44 47 52 54 54 54 54 53 49 41
26 22 19 31 28 28 36 36 34 34 35 36 36 35 36 36 35 34 34 35 36 36 35 34 34 35 36 36 38 40 39 38 37 36 36 38 41 44 45 50 48 44 40 35
25 24 38 39 38 39 36 35 35 35 35 35 35 34 35 33 33 32 32 32 32 33 32 31 32 32 32 34 36 36 35 34 33 31 31 32 33 34 36 38 39 37 36 33
26 37 37 38 39 34 35 34 34 34 34 34 33 33 33 31 30 29 29 29 29 30 29 28 29 29 30 33 35 34 33 31 30 29 28 28 29 30 29 30 33 32 29 27
35 36 37 38 38 38 34 33 33 33 33 32 32 32 31 29 28 27 26 26 26 26 26 26 26 27 28 30 33 32 31 31 29 28 27 27 27 28 28 28 30 28 27 27
29 33 35 34 34 34 33 32 31 30 30 28 28 28 29 26 26 25 23 23 23 23 23 24 25 26 27 29 30 31 29 29 29 28 27 26 25 26 29 29 29 29 29 27
31 36 34 32 32 30 30 31 29 28 27 26 25 25 24 22 22 23 21 21 21 22 22 23 24 25 27 29 28 27 27 26 26 25 25 25 25 23 22 25 28 28 29 29
27 33 29 28 28 28 28 29 28 27 25 23 22 21 19 19 18 19 20 20 20 21 21 23 23 24 27 28 28 27 26 25 25 25 24 24 23 23 23 22 21 22 26 28
27 25 26 26 26 26 26 26 25 25 24 22 20 19 18 17 17 18 19 18 18 19 20 21 22 23 25 26 26 26 26 26 25 25 24 24 23 23 22 22 21 20 20 20
22 23 23 23 24 25 24 23 23 23 23 22 20 19 19 18 17 17 18 18 16 16 18 19 20 22 24 23 24 23 24 24 22 22 21 21 20 19 18 18 18 18 17 17
21 20 21 21 24 23 22 21 21 20 19 19 19 21 21 17 16 15 15 15 15 16 17 18 19 21 21 22 21 20 20 21 21 21 20 19 18 18 17 16 16 15 15 16
21 22 22 24 22 20 19 18 17 17 16 16 15 14 12 12 11 12 13 13 13 12 14 17 19 19 21 20 20 20 19 18 18 18 17 17 16 16 15 14 14 13 13 14
18 18 18 20 20 19 18 18 17 16 16 15 14 13 12 11 11 11 11 10 10 9 11 15 17 18 18 20 19 18 17 17 17 16 16 16 15 15 14 13 12 12 11 10
16 16 16 16 17 15 15 15 15 14 15 13 12 11 9 12 11 10 9 8 10 11 13 14 16 15 16 17 18 16 16 15 14 13 12 12 12 12 12 11 11 10 9 9
16 15 15 14 14 14 15 15 13 13 14 13 10 9 8 9 8 11 8 6 8 9 10 11 12 11 10 11 12 12 12 12 11 11 11 10 9 9 9 8 8 8 8 7
15 14 13 13 13 13 14 14 13 13 12 12 12 11 11 9 6 6 7 7 7 7 9 10 10 11 12 10 10 9 9 9 9 8 8 6 6 6 5 4 3 5 5 2
15 15 14 12 12 12 12 12 12 11 10 10 11 9 7 7 6 4 3 5 6 7 7 8 9 9 7 7 8 9 8 7 7 7 6 5 3 3 4 5 2 2 3 2
17 16 15 15 15 13 11 12 12 11 8 8 7 8 9 8 8 9 9 7 6 6 7 9 7 6 8 7 4 3 4 6 5 4 4 2 4 3 -0 -1 1 2 2 1
16 15 15 14 13 12 13 13 13 12 10 9 8 7 6 7 6 8 7 7 8 4 4 4 7 6 5 5 6 5 4 2 3 3 2 3 -0 -1 1 1 1 1 -0 -2
17 16 17 18 18 18 17 16 13 11 10 8 8 6 6 9 9 7 6 6 7 7 3 2 2 3 5 4 5 1 -1 -1 1 2 1 2 2 -1 -1 0 0 0 -1 -2
18 18 16 14 13 14 13 13 11 10 10 7 8 9 7 6 6 6 6 5 4 7 7 4 2 2 1 2 2 3 3 2 2 1 1 0 1 -1 -2 -3 -2 -2 -1 -2
Wind_Speed
15 11 8 1 12 4 17 15 10 2 12 12 14 14 23 20 20 23 22 23 21 19 17 17 16 5 18 25 28 28 26 29 31 29 29 29 29 26 26 28 30 30 30 32
14 15 9 13 17 2 2 5 13 15 15 9 20 13 9 16 20 19 19 18 19 20 21 19 18 17 18 12 24 28 28 29 26 29 30 31 30 30 30 29 29 30 33 33
5 13 20 8 14 17 14 20 15 14 18 2 3 23 15 16 18 16 16 17 17 19 19 19 20 20 19 16 9 24 27 26 26 23 30 31 28 30 32 32 28 29 30 31
10 13 5 5 10 5 4 14 6 17 16 14 20 16 17 16 16 14 11 10 13 17 19 21 21 23 20 18 13 20 12 20 25 26 25 24 27 30 27 27 30 30 29 29
7 6 10 19 5 4 3 9 15 17 12 15 11 17 19 18 17 14 17 17 22 20 21 23 26 24 22 21 20 22 20 21 18 15 23 23 26 30 29 27 25 28 28 28
4 7 7 7 3 10 3 7 11 16 17 17 19 14 13 20 26 28 30 26 23 20 23 25 26 24 22 22 20 21 20 17 18 21 17 22 26 25 24 26 29 25 25 24
17 7 8 8 10 9 10 5 13 17 17 19 17 11 12 19 24 24 24 25 20 22 22 21 23 22 21 21 23 22 19 16 17 20 19 21 16 17 20 21 20 17 12 6
10 6 12 15 8 4 10 16 18 20 19 19 18 17 16 20 23 26 26 26 24 21 21 22 22 20 18 20 21 20 17 17 17 20 20 21 22 20 16 6 19 17 16 10
11 10 11 19 19 20 19 21 19 21 19 16 16 16 17 20 22 23 23 22 21 20 19 19 20 19 19 20 19 18 16 16 16 16 22 22 23 24 20 16 8 6 7 8
2 14 16 21 21 17 20 20 21 20 19 18 15 17 16 19 20 19 20 20 18 18 18 19 19 19 18 18 17 13 14 16 16 17 21 24 21 20 21 19 13 14 15 17
6 14 21 16 13 12 19 20 18 18 20 19 16 16 15 15 16 15 14 15 15 15 15 17 18 19 19 20 16 12 13 13 14 15 17 21 28 22 20 22 16 13 14 17
5 9 15 12 15 14 15 15 16 16 17 18 18 16 12 13 13 13 15 15 16 17 16 17 18 18 20 19 15 10 13 13 14 14 16 17 20 29 37 30 34 31 27 27
5 6 17 16 14 11 10 10 15 16 16 13 14 13 14 13 14 13 14 15 16 16 15 16 16 18 19 17 15 14 14 14 14 15 16 17 18 19 25 29 34 36 32 28
19 7 15 13 10 15 15 13 17 15 14 14 12 13 14 13 13 14 15 14 14 15 16 16 17 20 18 17 15 15 15 17 16 16 16 18 18 17 17 18 21 24 30 27
15 17 14 15 15 14 15 15 14 14 13 12 13 13 13 15 16 15 13 13 14 17 18 18 19 21 20 17 19 17 14 15 16 17 17 17 17 17 16 16 17 18 17 22
13 16 15 15 13 12 13 13 12 12 12 11 13 14 14 15 16 17 18 18 20 20 19 19 21 20 20 20 19 18 19 21 19 17 17 18 18 18 18 18 18 17 17 15
14 15 14 13 12 14 15 14 13 12 13 14 14 11 13 17 17 18 18 18 19 20 20 21 19 19 20 20 20 18 17 18 18 18 18 18 18 18 17 18 19 19 19 21
14 14 15 13 12 13 15 14 14 14 14 15 15 18 19 18 17 16 16 15 17 22 22 21 20 19 19 19 18 17 17 18 17 18 17 19 18 17 17 18 17 17 17 19
15 14 14 16 14 15 15 16 16 15 14 14 16 17 17 16 16 15 14 17 19 19 20 18 20 19 21 20 16 16 18 17 16 16 16 17 17 16 16 16 16 15 15 15
14 14 14 15 15 14 14 14 15 16 14 14 15 17 17 13 13 14 15 19 16 12 13 16 14 16 16 16 15 15 15 16 16 16 16 16 16 16 16 17 15 15 14 14
12 12 14 14 15 16 15 13 14 15 13 14 16 15 15 15 16 11 13 15 15 13 14 16 16 13 14 14 15 15 16 16 16 15 15 15 16 16 15 15 15 14 14 13
11 13 13 14 14 15 14 14 14 13 14 14 14 11 10 12 13 16 15 13 10 12 12 14 14 18 15 16 15 15 16 15 15 14 14 15 15 14 15 15 16 14 13 15
11 11 11 12 13 13 13 13 13 13 14 13 10 12 13 11 9 9 12 9 10 12 12 13 16 16 17 15 14 13 14 15 15 15 16 15 15 16 14 13 14 15 13 12
11 10 11 10 9 10 11 10 10 11 12 12 13 13 8 9 10 9 7 8 11 12 13 13 14 17 15 12 14 14 15 14 15 16 15 15 13 13 13 13 13 12 13 13
9 9 10 10 9 8 9 9 9 9 10 11 11 10 10 8 8 7 8 9 11 11 11 14 14 13 12 13 12 12 13 14 14 13 14 11 12 12 12 9 9 11 11 10
8 7 8 9 7 3 5 6 7 7 9 9 9 9 10 8 7 6 6 7 8 9 9 10 11 12 11 12 11 10 10 10 12 11 12 11 10 10 11 11 10 8 6 5
6 4 7 7 7 9 11 11 10 9 9 11 10 7 6 5 7 8 9 9 10 8 6 6 6 7 9 10 10 10 6 7 7 8 8 9 8 8 7 6 5 4 3 1
Wind_Direction
317 312 165 235 292 269 231 215 213 238 264 234 274 281 285 304 64 49 39 38 38 42 31 50 53 355 201 185 188 189 187 191 199 201 205 210 214 211 211 210 210 212 213 217
299 283 260 230 207 257 352 285 243 260 300 182 245 211 253 64 62 55 49 46 46 33 34 32 27 29 19 217 197 190 199 204 195 196 201 206 208 211 213 215 214 216 218 219
306 343 322 297 218 195 192 207 207 194 226 208 138 81 60 55 59 51 39 38 47 44 44 45 26 17 21 5 344 202 204 208 208 195 200 205 204 209 214 215 216 217 218 222
272 306 267 244 303 191 354 34 260 94 68 68 90 73 50 44 39 32 21 39 61 62 42 25 25 15 4 4 18 26 254 221 208 210 211 203 204 210 212 211 215 217 220 217
256 253 275 300 318 25 5 49 66 83 63 28 75 50 29 9 12 1 28 40 66 53 44 31 18 7 20 26 23 24 15 11 353 284 224 209 205 211 212 211 213 217 219 220
258 240 237 242 351 343 238 101 87 80 68 58 61 54 3 29 41 49 48 54 52 47 41 29 11 5 16 16 18 13 2 4 355 351 314 224 215 215 209 207 215 216 218 217
228 249 284 275 327 341 212 132 79 72 67 65 69 59 9 42 45 51 50 46 47 49 44 26 13 6 12 9 6 354 356 3 19 12 359 359 330 235 208 209 216 212 191 114
212 229 251 326 340 44 116 69 70 62 52 52 48 47 36 44 42 39 32 34 33 34 35 25 17 11 7 5 348 354 3 9 18 34 21 19 15 5 7 190 189 174 156 119
179 208 48 36 52 53 76 79 68 67 54 48 50 38 41 46 41 39 31 29 27 27 24 23 13 10 1 348 348 0 9 19 18 43 49 30 32 21 11 13 58 70 105 116
190 58 71 54 49 60 70 58 67 60 54 43 48 37 48 45 40 38 30 21 20 21 19 11 6 4 358 345 348 13 18 19 23 34 47 61 45 40 34 14 23 60 63 66
82 96 85 64 38 41 50 49 43 60 58 42 33 35 61 48 42 39 33 25 26 24 20 12 3 2 357 355 358 21 34 31 38 41 51 55 66 56 50 52 57 53 80 90
84 342 95 83 51 37 51 40 46 51 49 43 31 25 56 51 42 36 32 25 24 23 22 15 10 6 1 3 10 32 50 44 41 56 62 64 64 68 60 60 67 71 79 88
47 13 93 87 68 50 63 65 69 62 55 48 41 43 54 56 40 38 37 34 32 26 21 19 19 19 10 12 26 39 57 61 62 61 64 69 72 75 85 66 64 70 68 65
12 107 62 59 69 49 52 41 88 80 71 66 56 54 60 62 52 45 41 39 39 36 31 24 27 24 14 20 38 45 54 63 71 73 72 74 72 74 78 78 80 65 57 71
20 46 47 47 47 54 58 55 61 64 74 76 76 73 69 69 64 57 50 52 50 45 36 32 31 27 17 28 41 46 53 63 71 73 72 76 76 74 72 74 69 70 60 54
20 40 38 44 39 53 59 60 72 67 67 72 77 78 82 83 74 61 51 46 47 39 31 33 36 29 31 33 38 43 48 52 62 69 70 68 67 69 69 69 71 68 62 56
35 27 23 32 35 67 66 62 63 62 65 64 58 70 80 73 65 57 49 43 40 39 32 29 27 36 41 44 49 44 45 47 54 62 66 68 69 68 70 69 69 65 63 59
49 51 39 36 55 68 66 66 67 66 68 72 72 71 69 66 65 58 50 47 46 40 26 23 28 33 42 45 49 58 59 54 52 59 61 65 66 67 68 71 71 72 69 63
49 53 51 46 64 70 73 76 74 75 68 71 76 79 80 72 67 63 59 55 48 42 17 16 25 34 39 42 54 58 60 61 60 60 62 66 68 69 70 71 72 70 70 69
56 54 59 60 58 70 77 74 78 75 73 75 76 73 68 69 77 70 62 59 47 39 25 20 34 38 40 40 50 58 60 66 69 66 64 64 65 66 68 68 71 72 72 74
73 70 69 71 68 64 66 71 78 77 76 79 85 84 82 69 54 59 64 58 37 31 32 31 35 45 44 48 51 54 58 61 60 62 63 63 65 64 66 67 65 68 72 72
81 80 79 77 75 72 67 68 72 74 74 73 73 77 87 89 77 64 52 59 43 38 37 36 40 40 41 50 53 54 58 62 62 62 63 64 65 66 69 72 70 62 73 75
94 91 89 89 89 86 78 74 73 74 71 65 78 86 80 74 70 79 73 52 59 47 45 40 39 46 50 49 47 46 54 62 64 65 66 69 71 68 65 63 64 67 74 72
106 111 113 121 117 104 101 103 98 92 87 75 67 55 91 91 76 73 97 102 78 57 40 36 47 51 47 52 58 58 55 55 60 65 68 71 67 64 66 63 57 53 65 71
133 138 139 135 128 135 141 146 132 115 97 84 76 74 76 69 90 74 71 69 84 72 58 46 42 48 50 60 75 70 56 54 52 62 61 69 79 70 59 53 46 68 78 76
97 90 72 61 63 112 161 143 112 121 119 106 95 86 74 80 106 104 89 81 81 106 94 71 59 52 43 53 66 86 75 65 57 58 60 60 83 74 63 58 55 58 74 81
111 149 126 96 81 71 63 65 81 73 85 105 102 121 113 82 76 79 80 75 61 57 96 117 89 73 68 55 56 72 108 74 56 58 63 54 73 78 68 46 21 8 23 4